Photometre #859[NE_1.6] Durban_UKZN AOT

File : 20221125_859.hum

25/11/2022,03:34:30,TEMP=20.3,BA=5.40,STAT.A=14.0,ExtBa=12.52
25/11/2022,03:37:37,TEMP=20.6,BA=5.40,STAT.A=13.5,ExtBa=12.49
25/11/2022,03:41:14,TEMP=20.7,BA=5.40,STAT.A=13.5,ExtBa=12.48
25/11/2022,03:45:30,TEMP=20.7,BA=5.40,STAT.A=13.5,ExtBa=12.48
25/11/2022,03:50:38,TEMP=20.7,BA=5.40,STAT.A=14.0,ExtBa=12.48
25/11/2022,03:56:55,TEMP=20.7,BA=5.40,STAT.A=14.0,ExtBa=12.49
25/11/2022,04:04:47,TEMP=20.8,BA=5.40,STAT.B=14.0,ExtBa=12.49
25/11/2022,04:08:31,TEMP=20.9,BA=5.40,STAT.A=13.5,ExtBa=12.47
25/11/2022,04:12:40,TEMP=21.0,BA=5.36,STAT.A=14.0,ExtBa=12.47
25/11/2022,04:17:19,TEMP=21.0,BA=5.36,STAT.A=14.0,ExtBa=12.48
25/11/2022,04:22:34,TEMP=21.0,BA=5.40,STAT.A=14.0,ExtBa=12.48
25/11/2022,04:28:33,TEMP=21.1,BA=5.40,STAT.C=14.0,ExtBa=12.48
25/11/2022,04:35:25,TEMP=21.1,BA=5.36,STAT.A=14.0,ExtBa=12.48
25/11/2022,04:43:25,TEMP=21.2,BA=5.40,STAT.A=14.0,ExtBa=12.48
25/11/2022,04:52:50,TEMP=21.1,BA=5.40,STAT.A=14.0,ExtBa=12.48
25/11/2022,05:04:07,TEMP=21.0,BA=5.40,STAT.A=14.0,ExtBa=12.49
25/11/2022,05:15:22,TEMP=20.7,BA=5.40,STAT.D=14.0,ExtBa=12.48
25/11/2022,05:17:57,TEMP=20.8,BA=5.40,STAT.B=13.5,ExtBa=12.46
25/11/2022,05:30:22,TEMP=20.0,BA=5.40,STAT.D=14.0,ExtBa=12.48
25/11/2022,05:42:22,TEMP=19.8,BA=5.44,STAT.D=14.0,ExtBa=12.48
25/11/2022,05:45:57,TEMP=19.9,BA=5.44,STAT.B=14.0,ExtBa=12.46
25/11/2022,05:57:22,TEMP=19.9,BA=5.44,STAT.D=14.0,ExtBa=12.47
25/11/2022,05:59:17,TEMP=20.2,BA=5.44,STAT.D=13.5,ExtBa=12.43
25/11/2022,06:12:23,TEMP=19.9,BA=5.44,STAT.D=14.0,ExtBa=12.47
25/11/2022,06:14:19,TEMP=20.3,BA=5.44,STAT.D=13.5,ExtBa=12.43
25/11/2022,06:27:23,TEMP=19.9,BA=5.44,STAT.D=14.0,ExtBa=12.47
25/11/2022,06:29:19,TEMP=20.2,BA=5.44,STAT.D=13.5,ExtBa=12.43
25/11/2022,06:42:23,TEMP=20.2,BA=5.44,STAT.D=14.0,ExtBa=12.47
25/11/2022,06:44:21,TEMP=20.6,BA=5.44,STAT.F,ExtBa=12.42
25/11/2022,07:00:09,TEMP=20.6,BA=5.44,STAT.D=14.0,ExtBa=12.46
25/11/2022,07:12:23,TEMP=20.9,BA=5.48,STAT.D=14.0,ExtBa=12.46
25/11/2022,07:14:21,TEMP=21.3,BA=5.48,STAT.D=13.5,ExtBa=12.42
25/11/2022,07:27:23,TEMP=21.4,BA=5.48,STAT.D=14.0,ExtBa=12.48
25/11/2022,07:29:21,TEMP=21.8,BA=5.48,STAT.D=13.5,ExtBa=12.45
25/11/2022,07:42:23,TEMP=22.0,BA=5.52,STAT.D=14.0,ExtBa=12.58
25/11/2022,07:44:23,TEMP=22.5,BA=5.52,STAT.F,ExtBa=12.54
25/11/2022,07:57:23,TEMP=23.1,BA=5.52,STAT.D=14.0,ExtBa=12.58
25/11/2022,07:59:21,TEMP=23.5,BA=5.52,STAT.D=13.5,ExtBa=12.52
25/11/2022,08:12:24,TEMP=23.3,BA=5.52,STAT.D=14.0,ExtBa=12.70
25/11/2022,08:14:24,TEMP=23.7,BA=5.52,STAT.D=13.5,ExtBa=12.66
25/11/2022,08:27:24,TEMP=23.9,BA=5.52,STAT.D=14.0,ExtBa=12.89
25/11/2022,08:29:35,TEMP=24.5,BA=5.52,STAT.D=13.5,ExtBa=12.66
25/11/2022,08:42:24,TEMP=24.0,BA=5.52,STAT.D=14.0,ExtBa=12.65
25/11/2022,08:44:25,TEMP=24.3,BA=5.52,STAT.F,ExtBa=12.59
25/11/2022,08:57:24,TEMP=24.0,BA=5.52,STAT.D=14.0,ExtBa=12.65
25/11/2022,08:59:25,TEMP=24.4,BA=5.52,STAT.D=14.0,ExtBa=12.60
25/11/2022,09:12:24,TEMP=24.3,BA=5.56,STAT.D=14.0,ExtBa=12.71
25/11/2022,09:14:26,TEMP=24.7,BA=5.56,STAT.D=14.0,ExtBa=12.67
25/11/2022,09:27:24,TEMP=24.6,BA=5.56,STAT.D=14.0,ExtBa=12.73
25/11/2022,09:29:26,TEMP=25.0,BA=5.56,STAT.D=14.0,ExtBa=12.64
25/11/2022,09:42:24,TEMP=24.6,BA=5.56,STAT.D=14.0,ExtBa=12.79
25/11/2022,09:44:29,TEMP=25.0,BA=5.56,STAT.F,ExtBa=12.69
25/11/2022,09:57:24,TEMP=23.8,BA=5.56,STAT.D=14.0,ExtBa=12.61
25/11/2022,09:59:27,TEMP=24.0,BA=5.56,STAT.D=14.0,ExtBa=12.57
25/11/2022,10:12:24,TEMP=23.6,BA=5.56,STAT.D=14.0,ExtBa=12.65
25/11/2022,10:14:26,TEMP=24.1,BA=5.56,STAT.D=14.0,ExtBa=12.62
25/11/2022,10:27:24,TEMP=24.0,BA=5.56,STAT.D=14.0,ExtBa=12.71
25/11/2022,10:29:25,TEMP=24.4,BA=5.56,STAT.D=14.0,ExtBa=12.67
25/11/2022,10:42:24,TEMP=24.2,BA=5.60,STAT.D=14.0,ExtBa=12.71
25/11/2022,10:44:26,TEMP=24.5,BA=5.60,STAT.F,ExtBa=12.67
25/11/2022,10:57:24,TEMP=23.7,BA=5.56,STAT.D=14.0,ExtBa=12.60
25/11/2022,10:59:24,TEMP=23.9,BA=5.56,STAT.D=14.0,ExtBa=12.57
25/11/2022,11:12:24,TEMP=23.0,BA=5.60,STAT.D=14.0,ExtBa=12.62
25/11/2022,11:14:24,TEMP=23.3,BA=5.60,STAT.D=14.0,ExtBa=12.58
25/11/2022,11:27:24,TEMP=22.9,BA=5.60,STAT.D=14.0,ExtBa=12.69
25/11/2022,11:29:22,TEMP=23.3,BA=5.60,STAT.D=14.0,ExtBa=12.65
25/11/2022,11:42:23,TEMP=23.4,BA=5.60,STAT.D=14.0,ExtBa=12.67
25/11/2022,11:44:23,TEMP=23.6,BA=5.60,STAT.F,ExtBa=12.61
25/11/2022,11:57:23,TEMP=23.1,BA=5.60,STAT.D=14.0,ExtBa=12.63
25/11/2022,11:59:21,TEMP=23.4,BA=5.60,STAT.D=13.5,ExtBa=12.57
25/11/2022,12:12:23,TEMP=22.8,BA=5.60,STAT.D=14.0,ExtBa=12.58
25/11/2022,12:14:21,TEMP=23.1,BA=5.60,STAT.D=13.5,ExtBa=12.53
25/11/2022,12:39:23,TEMP=22.5,BA=5.52,STAT.D=14.0,ExtBa=12.55
25/11/2022,12:43:33,TEMP=22.5,BA=5.52,STAT.F,ExtBa=12.52
25/11/2022,12:54:23,TEMP=22.2,BA=5.56,STAT.D=14.0,ExtBa=12.52
25/11/2022,12:58:32,TEMP=22.2,BA=5.56,STAT.D=14.0,ExtBa=12.50
25/11/2022,13:09:22,TEMP=21.8,BA=5.52,STAT.D=14.0,ExtBa=12.51
25/11/2022,13:13:32,TEMP=21.9,BA=5.56,STAT.D=14.0,ExtBa=12.49
25/11/2022,13:24:22,TEMP=21.6,BA=5.56,STAT.D=14.0,ExtBa=12.50
25/11/2022,13:28:31,TEMP=21.6,BA=5.56,STAT.D=14.0,ExtBa=12.48
25/11/2022,13:39:22,TEMP=21.4,BA=5.52,STAT.D=14.0,ExtBa=12.49
25/11/2022,13:41:19,TEMP=21.8,BA=5.52,STAT.B=13.5,ExtBa=12.46
25/11/2022,13:54:22,TEMP=21.3,BA=5.56,STAT.D=14.0,ExtBa=12.48
25/11/2022,14:06:22,TEMP=21.0,BA=5.56,STAT.D=14.0,ExtBa=12.48
25/11/2022,14:09:09,TEMP=21.1,BA=5.56,STAT.B=13.5,ExtBa=12.45
25/11/2022,14:21:22,TEMP=20.8,BA=5.56,STAT.D=14.0,ExtBa=12.47
25/11/2022,14:23:18,TEMP=21.1,BA=5.56,STAT.A=13.5,ExtBa=12.44
25/11/2022,14:34:14,TEMP=19.6,BA=5.52,STAT.A=14.0,ExtBa=12.46
25/11/2022,14:43:39,TEMP=19.1,BA=5.52,STAT.A=14.0,ExtBa=12.46
25/11/2022,15:00:11,TEMP=18.9,BA=5.48,STAT.A=14.0,ExtBa=12.46
25/11/2022,15:02:06,TEMP=19.3,BA=5.48,STAT.C=13.5,ExtBa=12.42
25/11/2022,15:04:30,TEMP=19.4,BA=5.48,STAT.A=13.5,ExtBa=12.42
25/11/2022,15:09:45,TEMP=19.3,BA=5.48,STAT.A=13.5,ExtBa=12.43
25/11/2022,15:14:24,TEMP=19.4,BA=5.48,STAT.A=13.5,ExtBa=12.43
25/11/2022,15:18:33,TEMP=19.5,BA=5.48,STAT.A=13.5,ExtBa=12.43
25/11/2022,15:22:17,TEMP=19.6,BA=5.48,STAT.B=13.5,ExtBa=12.43
25/11/2022,15:30:09,TEMP=19.5,BA=5.48,STAT.A=13.5,ExtBa=12.44
25/11/2022,15:36:26,TEMP=19.2,BA=5.48,STAT.A=14.0,ExtBa=12.43
25/11/2022,15:41:34,TEMP=19.0,BA=5.52,STAT.A=14.0,ExtBa=12.43
25/11/2022,15:45:50,TEMP=18.9,BA=5.52,STAT.A=13.5,ExtBa=12.42
25/11/2022,15:49:27,TEMP=18.9,BA=5.52,STAT.A=13.5,ExtBa=12.42
25/11/2022,15:52:34,TEMP=18.9,BA=5.48,STAT.A=13.5,ExtBa=12.41